Temp
8 8 8 8 8 8 8 8 8 8 9 11 12 11 11 12 13 12 14 21 23 24 24 25 24 25 26 25 26 27 23 24 26 28 29 32 33 36 36 35 35 35 35 36 35
7 7 7 8 8 8 8 8 8 8 8 8 10 12 13 12 12 12 22 22 23 24 23 24 24 25 25 26 27 26 24 25 28 29 30 32 33 34 35 34 34 34 34 35 36
7 7 7 7 7 8 7 7 7 8 8 8 8 10 12 11 12 20 22 22 22 23 23 24 25 26 24 25 26 26 25 27 28 30 31 31 32 33 33 32 33 33 33 34 33
7 7 7 7 7 7 7 7 7 8 9 9 8 8 9 10 17 22 21 22 23 21 22 23 23 23 23 24 26 25 27 28 29 30 30 31 32 32 32 31 33 33 33 33 32
7 7 7 8 9 9 9 9 9 8 9 9 8 8 9 11 13 21 20 21 22 21 22 22 22 22 21 24 26 26 27 29 29 30 30 31 31 31 32 33 33 34 34 31 31
7 8 8 8 9 9 10 10 10 10 9 7 8 8 8 8 15 18 19 20 22 22 22 22 21 22 22 23 24 27 27 28 29 29 30 30 31 32 32 33 33 33 32 31 31
8 8 8 9 9 10 10 11 11 11 9 8 8 8 9 10 16 18 18 18 19 20 23 24 23 23 24 23 25 26 26 27 28 29 29 31 30 31 32 32 32 32 32 32 31
7 7 8 8 9 10 11 11 12 13 12 10 8 9 9 14 16 16 18 17 19 20 21 22 23 22 23 23 25 25 25 24 27 28 30 30 28 30 31 31 30 32 32 31 30
7 7 7 8 9 10 10 11 13 15 12 12 9 10 11 17 16 18 17 18 19 20 22 23 23 21 22 21 21 23 22 24 26 29 29 29 28 30 31 31 31 31 32 32 31
6 7 8 9 7 10 10 13 16 13 12 12 12 12 15 18 21 21 20 19 21 21 21 21 20 20 19 19 20 22 23 24 25 27 28 28 28 30 31 31 31 31 31 31 31
8 7 7 7 8 10 9 11 15 13 13 15 16 15 17 19 21 21 22 22 22 20 17 19 18 18 20 20 22 24 24 25 26 28 27 28 28 29 30 29 29 28 27 27 27
8 8 9 10 11 12 11 10 15 15 13 16 16 17 18 18 17 19 20 19 19 18 19 18 17 20 22 22 22 22 22 23 26 28 28 28 28 29 30 30 31 31 30 27 27
9 10 10 12 12 13 13 15 16 15 12 14 17 17 17 18 17 18 20 19 18 18 18 18 19 22 22 22 22 22 22 23 24 26 27 27 26 27 29 29 30 29 28 28 27
9 9 10 11 13 13 14 15 15 15 10 14 17 18 20 18 17 20 21 20 19 18 18 18 20 21 21 21 23 21 24 25 25 24 23 27 24 26 28 29 29 30 28 28 27
9 9 10 11 11 11 14 14 14 14 10 15 17 18 20 18 19 20 21 21 19 19 18 18 19 20 21 22 23 22 25 25 25 24 24 25 23 27 26 27 27 27 28 27 26
8 10 9 11 11 13 13 14 14 10 10 13 18 18 19 19 20 20 19 20 20 19 19 19 21 20 20 22 24 24 24 23 23 23 22 24 24 26 26 27 28 28 28 28 27
7 11 10 9 12 14 13 13 10 10 14 15 17 17 17 16 17 17 17 16 13 14 17 19 19 21 22 20 22 22 21 19 19 20 21 25 24 26 26 27 28 28 28 27 27
7 12 13 12 13 13 13 10 10 13 13 17 17 17 15 16 16 16 17 16 16 16 15 16 16 19 22 20 19 20 21 20 18 20 22 25 24 24 27 29 29 30 28 28 24
8 12 12 14 14 13 10 9 8 12 15 16 16 15 14 16 15 12 14 15 16 16 13 14 16 19 20 20 21 20 19 22 21 22 22 24 25 27 28 29 29 28 27 24 24
6 9 13 14 14 13 9 11 13 16 15 15 14 15 14 14 14 12 12 16 16 18 16 16 14 18 19 20 20 19 22 20 21 19 19 23 25 25 28 28 29 27 24 24 24
8 11 14 15 14 11 8 11 14 16 16 16 14 14 15 13 13 13 13 15 15 15 13 14 14 16 17 18 18 18 20 20 20 22 21 21 23 27 28 29 28 26 26 24 24
10 11 15 15 10 10 9 13 14 15 16 15 13 15 14 14 13 13 12 12 11 13 13 14 12 12 15 17 19 19 18 21 19 20 23 22 24 30 30 28 26 27 26 25 25
8 12 16 15 9 9 12 14 14 15 13 12 14 15 14 13 11 11 10 13 13 13 13 12 11 11 14 17 19 18 20 21 21 21 22 22 24 28 28 30 29 27 26 26 25
8 10 12 13 13 11 12 12 12 15 15 15 14 14 13 13 13 13 10 12 12 13 14 12 11 12 12 14 13 13 15 16 17 20 22 24 25 28 28 29 27 27 26 26 25
9 10 11 9 9 10 11 10 10 12 14 14 13 13 12 11 12 12 13 14 15 15 13 12 10 12 13 14 15 14 14 16 15 16 21 24 25 27 27 28 27 27 26 26 25
9 9 10 9 10 11 11 9 9 10 11 12 12 12 12 10 11 11 12 12 11 12 11 10 11 12 12 14 16 15 16 17 16 16 18 23 25 28 26 28 28 27 27 26 26
9 9 8 9 10 10 11 12 9 10 12 13 13 12 11 11 12 12 13 13 12 12 12 11 11 11 12 16 15 14 16 17 17 18 19 21 27 26 23 25 24 26 27 27 27
Height
828 826 824 821 819 816 812 809 806 803 799 795 792 790 788 782 776 775 773 764 765 764 765 766 767 765 768 769 768 766 795 798 784 774 757 731 737 719 713 726 722 720 723 722 724
827 825 822 820 817 814 812 809 806 803 800 796 792 788 783 779 773 766 754 755 758 760 763 763 763 764 766 763 764 773 784 781 760 754 752 738 737 731 728 730 728 723 720 720 721
826 824 821 818 815 811 808 805 802 800 798 795 791 786 783 781 772 750 748 747 748 754 756 762 760 761 767 763 762 762 767 762 757 748 742 740 735 725 732 738 728 730 724 720 718
825 822 819 815 812 809 806 802 799 796 794 791 788 787 784 783 776 745 745 745 743 747 754 757 757 763 766 766 754 764 751 753 748 743 742 740 730 731 727 728 718 716 717 717 720
824 820 817 813 809 805 801 798 796 794 791 788 787 786 784 779 761 745 748 747 744 745 749 753 758 762 767 758 753 747 747 743 737 736 734 730 730 728 723 714 710 709 710 711 710
823 819 815 811 806 802 798 794 791 789 787 785 784 785 785 779 752 747 748 747 746 745 747 750 752 755 757 755 756 742 743 738 734 732 730 734 728 723 716 710 708 706 707 706 705
821 817 813 809 804 799 794 788 785 782 781 781 781 781 778 763 744 742 740 741 740 741 741 743 745 749 744 754 741 744 750 739 728 727 729 728 728 720 709 707 706 705 700 698 697
821 816 811 806 801 795 789 783 778 774 773 773 775 776 765 742 739 738 735 736 735 736 739 740 739 742 744 740 740 748 749 752 727 725 719 730 714 713 705 706 707 701 698 695 691
819 814 809 803 798 792 786 777 769 767 768 769 772 771 756 736 735 728 732 734 734 735 736 738 737 743 743 753 759 745 755 746 731 715 721 725 716 705 698 700 700 695 691 688 684
816 811 805 798 794 788 782 773 763 761 764 767 767 770 745 731 724 724 725 728 730 731 734 735 741 748 749 753 750 749 745 725 723 723 717 721 718 698 691 696 694 688 684 681 678
813 808 800 793 787 784 778 771 764 764 765 762 754 746 732 728 724 724 724 724 725 729 743 737 749 740 712 733 733 725 725 723 718 715 720 717 714 697 687 691 690 687 682 677 676
810 804 797 790 784 781 780 778 772 772 759 742 743 734 733 731 731 726 725 730 730 737 734 742 734 714 726 727 733 732 731 726 714 707 710 706 708 690 680 680 678 674 671 672 668
808 802 796 789 784 781 780 777 772 768 768 735 725 724 720 726 726 726 724 723 728 734 734 736 718 717 723 726 729 723 725 727 725 717 701 707 715 698 680 672 666 665 662 660 661
807 801 796 789 786 781 779 776 773 769 777 747 728 719 713 714 722 714 709 716 722 730 731 727 714 713 716 718 717 722 712 714 719 728 728 711 734 699 682 674 668 661 662 654 651
805 800 796 793 789 786 782 776 772 771 783 747 731 720 714 718 715 708 701 703 715 720 726 713 715 714 715 708 705 708 703 709 712 718 724 715 732 670 680 680 672 663 654 649 645
803 799 796 793 789 783 780 775 773 780 776 756 729 725 718 710 708 707 708 705 700 709 710 709 704 710 707 701 697 700 705 710 711 718 735 702 717 662 682 671 663 654 647 640 638
801 795 794 793 788 783 779 775 783 785 765 749 736 728 725 728 720 715 716 722 735 733 717 708 707 701 699 708 700 704 715 739 741 735 717 697 707 670 660 653 650 646 642 635 630
796 791 789 788 785 783 779 785 786 769 762 739 734 731 738 730 726 724 718 718 715 716 726 722 721 703 692 702 710 705 709 723 740 726 708 697 687 673 644 634 635 630 632 626 631
793 787 786 784 784 782 785 793 796 772 752 745 736 736 738 731 735 741 729 718 716 717 732 725 715 697 697 698 697 699 706 689 708 698 709 689 669 643 635 632 630 631 632 634 636
795 789 783 783 782 782 791 786 770 756 754 753 746 738 740 737 738 745 741 716 717 707 713 716 725 703 696 693 689 695 685 709 696 725 727 690 678 672 637 629 620 629 637 634 636
794 788 781 780 781 785 801 782 768 757 750 745 744 740 737 742 743 738 736 724 725 721 723 723 720 708 702 702 702 696 690 695 698 693 710 710 681 635 627 612 618 624 624 630 635
797 792 779 778 791 789 791 774 764 756 749 747 748 741 741 738 738 739 742 736 738 733 729 723 726 719 709 692 685 689 692 686 703 700 682 688 673 612 607 602 607 613 619 625 630
806 789 779 778 795 790 776 768 764 758 761 758 748 743 739 742 751 746 745 735 732 732 729 731 733 735 708 685 681 687 678 673 676 681 682 690 667 616 612 600 601 611 617 624 632
810 800 787 780 780 783 777 773 770 757 752 749 748 744 743 741 736 734 746 733 730 727 724 730 733 727 726 707 715 712 697 690 692 682 671 658 654 631 615 608 608 609 614 621 630
809 803 798 800 793 788 782 784 779 763 755 752 747 747 746 747 737 735 727 723 717 718 724 729 733 721 713 705 699 699 697 690 698 692 670 650 646 631 616 607 605 607 614 624 633
813 813 805 802 792 785 778 782 778 771 764 754 754 746 742 749 739 733 730 729 730 722 726 732 723 718 704 692 690 692 684 682 688 681 674 647 636 618 609 601 605 609 614 625 631
816 815 812 801 793 788 781 773 778 773 758 753 747 745 741 736 729 722 719 716 717 720 720 724 722 714 700 678 687 695 681 679 675 667 667 661 621 621 621 618 612 610 614 621 626
Wind_Speed
16 16 16 16 16 17 18 18 18 19 20 20 19 21 22 23 27 19 11 18 12 20 12 5 7 15 17 8 9 9 5 8 10 13 16 19 13 8 5 8 4 4 2 1 11
17 17 17 17 17 18 18 18 18 18 18 19 20 22 22 24 27 16 34 30 26 18 14 22 11 12 7 6 8 12 8 17 17 13 15 18 15 14 6 5 3 4 6 18 19
18 18 18 18 18 19 20 20 19 18 18 18 20 22 22 23 8 7 5 10 30 27 26 22 20 12 12 11 12 12 19 17 18 17 21 22 19 17 13 7 5 5 8 19 15
20 20 20 21 21 21 21 21 20 20 19 19 19 19 21 9 6 2 14 17 7 30 21 18 7 6 7 16 17 18 21 19 22 21 23 25 22 20 17 10 8 10 12 10 12
22 22 23 24 25 26 25 24 23 22 21 22 20 16 11 6 10 21 25 7 4 17 20 12 11 5 9 7 16 23 20 19 20 19 23 24 26 23 22 19 13 11 18 10 9
22 23 24 26 26 27 28 28 28 26 24 20 18 13 7 14 16 26 22 17 14 17 16 15 7 10 10 11 20 14 15 22 18 21 22 24 25 21 21 19 14 13 13 10 11
23 24 25 26 27 28 30 31 32 31 28 21 15 12 12 20 21 24 25 27 23 19 11 22 26 13 8 12 21 18 21 20 24 22 25 22 30 31 20 14 17 15 17 17 11
24 25 27 28 29 30 32 35 36 30 27 19 11 9 8 25 21 29 21 25 22 22 21 22 20 7 4 7 15 17 16 22 22 21 23 17 40 13 14 14 14 18 19 11 11
25 26 27 29 29 31 34 38 34 23 16 12 5 8 9 17 14 22 24 17 19 24 24 20 15 7 8 5 6 13 21 24 26 23 19 15 28 20 17 19 22 22 22 19 16
26 28 32 33 30 30 33 31 23 12 6 6 11 6 9 6 6 12 15 21 12 10 11 14 7 10 10 11 18 11 21 26 29 12 14 21 27 30 29 21 23 22 20 19 18
30 31 37 35 32 26 29 16 8 4 2 13 18 15 24 21 26 13 10 2 6 5 8 8 8 21 36 21 13 13 21 20 18 18 16 21 23 25 18 10 13 12 11 11 10
32 35 37 32 27 17 12 4 11 13 13 21 22 26 33 32 23 21 28 16 9 9 8 9 24 24 16 14 19 20 25 24 15 14 16 22 20 24 22 18 19 23 19 11 8
32 35 29 26 20 11 15 19 25 22 5 22 15 15 21 21 23 21 20 17 16 13 12 15 15 17 20 19 19 25 27 19 21 13 23 16 15 17 17 16 13 10 11 8 11
32 34 23 25 6 23 14 25 21 19 4 11 19 9 10 11 12 22 27 18 17 17 14 15 16 21 19 22 22 24 14 20 21 13 19 6 17 21 17 19 16 18 10 13 11
32 30 20 16 13 10 23 28 19 7 4 18 4 7 7 6 12 13 24 13 19 17 12 25 14 7 16 21 19 24 13 18 16 14 15 20 9 27 10 12 9 8 15 13 11
33 24 22 10 12 16 22 23 9 2 3 10 9 16 14 13 7 4 4 17 13 15 18 19 14 17 18 19 18 18 17 21 14 9 12 20 14 30 16 19 5 10 11 10 10
39 20 17 14 6 17 18 9 3 2 7 10 18 18 18 16 19 19 2 9 1 6 14 16 19 20 19 19 18 14 14 8 9 10 17 11 11 20 7 12 15 15 13 12 10
40 15 14 14 13 14 17 3 2 5 11 16 18 10 9 15 15 21 15 12 12 14 5 10 8 9 8 18 15 13 11 10 14 14 16 11 11 7 15 17 15 19 14 2 10
34 13 8 1 2 7 4 2 3 8 10 22 18 13 13 17 11 11 12 4 4 7 4 3 6 10 16 15 10 21 18 13 17 18 5 8 9 24 24 23 15 11 7 12 16
26 9 8 1 5 3 3 4 8 18 22 19 12 11 14 13 11 7 7 5 7 2 4 3 7 8 15 14 14 13 10 5 10 16 16 8 13 10 17 14 22 10 11 14 14
4 3 7 1 3 3 1 4 18 22 19 11 13 13 12 10 8 12 8 11 14 11 7 8 4 8 9 4 9 7 14 11 7 11 13 8 10 16 20 21 14 11 19 18 17
8 3 7 2 2 2 2 13 18 20 18 17 14 17 7 10 11 9 7 4 5 15 5 5 4 7 11 18 18 15 18 15 10 8 12 6 11 7 8 7 12 19 19 17 18
6 4 6 3 1 3 7 12 16 18 17 7 13 11 11 7 5 6 6 3 12 11 3 4 3 4 7 9 9 9 11 9 7 9 17 15 12 10 13 5 10 20 20 18 18
4 4 4 3 4 8 11 12 14 13 12 16 15 12 12 14 11 4 7 5 9 11 9 0 3 7 8 15 7 12 18 17 9 9 11 17 20 13 12 8 8 21 20 20 20
3 3 5 5 9 14 10 7 12 16 10 12 5 14 15 11 15 10 14 13 11 5 2 2 6 10 14 18 17 14 16 18 13 16 10 13 12 16 11 3 19 20 19 19 19
3 3 4 10 11 13 5 3 10 13 15 12 12 17 15 13 13 15 16 12 7 4 4 6 4 8 15 18 14 13 15 17 18 22 17 21 20 5 3 10 14 18 19 19 19
10 7 4 6 8 10 10 13 10 14 9 17 16 14 15 13 15 19 14 15 12 12 10 6 3 3 5 5 10 3 14 17 14 18 18 16 22 5 11 14 4 12 16 18 18
Wind_Direction
1 356 352 351 347 342 336 333 332 331 331 331 328 326 325 327 317 311 233 237 231 235 267 238 223 220 228 228 228 222 243 257 253 248 260 295 310 319 71 291 350 69 28 353 171
356 352 349 347 343 339 332 329 327 324 323 323 323 323 328 331 320 261 271 264 250 233 251 238 247 219 231 226 219 223 227 231 246 260 269 282 292 311 340 300 242 317 326 328 310
351 348 344 342 340 334 331 329 326 322 318 317 319 322 323 335 301 246 24 299 239 227 231 234 234 243 219 222 222 235 237 237 262 269 273 278 288 305 294 260 304 240 340 284 295
353 348 343 339 335 331 327 324 320 321 319 318 316 317 319 326 249 92 9 346 301 215 224 236 261 250 249 232 220 240 235 236 248 254 268 274 284 284 288 276 277 286 222 243 245
348 343 340 337 335 334 333 328 321 317 314 314 310 313 329 230 243 267 306 298 356 192 217 219 230 227 240 249 243 234 244 242 246 250 255 269 273 274 277 286 278 284 286 273 261
349 344 340 337 334 332 330 325 321 317 312 305 302 300 270 258 253 259 281 286 255 200 217 223 226 233 281 242 248 266 251 250 250 245 252 259 266 265 262 270 267 271 270 270 263
346 342 338 335 332 330 328 323 318 311 308 302 294 271 254 247 256 269 276 285 289 290 236 218 220 219 168 247 253 265 269 268 254 253 253 262 266 254 266 275 280 270 266 268 258
341 338 335 332 330 329 327 320 314 305 303 298 293 247 253 262 267 271 275 276 275 275 275 282 292 286 236 299 270 250 264 258 252 255 253 250 260 260 280 276 275 284 275 263 256
336 336 333 331 328 326 324 320 314 310 301 293 272 201 262 290 223 255 243 250 267 272 256 259 269 265 292 253 267 230 238 249 255 235 246 235 269 267 268 262 257 258 264 266 257
334 335 337 330 323 325 324 323 332 323 310 254 247 264 262 246 257 234 218 212 223 228 261 222 229 235 240 226 220 211 226 235 248 240 238 242 252 263 261 257 259 259 257 253 251
338 338 337 331 329 327 329 336 0 41 241 287 272 237 285 283 305 297 238 259 267 194 217 259 208 220 222 221 239 255 238 253 249 240 262 258 259 265 271 241 260 265 259 250 232
342 342 340 336 339 338 328 260 353 302 299 277 268 264 264 276 287 286 294 290 270 235 221 228 231 232 239 236 237 246 260 262 274 244 254 252 257 249 251 259 250 254 254 248 239
345 343 344 339 337 350 320 344 338 353 311 302 271 256 257 239 250 258 252 253 254 254 240 235 249 230 234 230 237 231 238 251 257 284 281 292 290 279 286 277 268 246 239 233 213
345 344 342 340 359 334 347 346 342 345 302 312 352 3 348 218 250 256 242 228 233 241 248 260 259 241 251 226 231 241 240 242 253 257 258 238 273 267 267 266 267 265 272 258 241
345 346 334 341 299 317 332 329 339 350 302 332 284 248 297 17 299 329 331 216 225 226 217 242 274 261 250 248 230 251 258 237 259 244 259 252 263 265 212 244 245 263 254 243 235
340 341 329 344 305 321 336 326 322 327 356 311 326 344 332 347 321 349 354 316 285 216 235 251 247 255 266 272 257 261 244 249 264 257 255 243 227 263 244 248 239 249 262 252 248
337 328 308 296 269 344 335 335 56 4 310 320 348 9 7 356 348 333 97 287 193 319 228 241 243 243 253 270 273 268 230 246 239 231 239 221 241 240 257 223 225 244 254 259 245
335 323 288 271 302 356 330 356 326 311 305 323 337 12 358 344 340 341 325 275 182 193 297 273 261 279 278 233 255 263 237 216 220 223 249 246 243 237 243 258 233 247 253 206 111
333 340 270 217 355 357 19 322 214 321 282 343 334 349 339 350 15 342 325 328 341 61 200 331 273 294 302 309 254 254 254 247 250 279 252 236 241 261 255 261 246 239 155 113 124
330 297 268 97 327 305 49 281 307 327 338 327 321 340 336 345 352 30 317 330 314 33 5 327 297 270 282 303 295 270 258 257 220 232 251 266 238 262 266 261 229 197 149 129 125
317 260 142 100 215 44 107 268 321 322 303 305 348 330 335 352 321 326 236 288 332 334 8 320 260 269 291 235 263 303 245 238 271 212 232 264 261 258 255 242 200 163 147 138 135
321 297 161 247 33 235 267 321 315 324 356 335 357 333 333 328 319 322 336 319 43 316 305 292 291 291 282 284 275 286 284 230 228 256 232 260 255 261 305 139 157 143 143 140 137
317 270 208 200 288 292 302 311 322 334 334 294 324 341 339 332 321 321 299 262 308 306 325 5 311 315 300 234 225 267 285 267 234 241 222 238 247 265 294 195 168 141 143 141 136
291 320 323 313 5 329 322 320 326 317 313 346 327 333 331 327 327 299 257 253 233 260 274 129 242 234 259 292 304 281 312 321 342 251 234 229 251 266 260 228 136 145 142 142 143
249 309 358 324 323 309 334 280 305 317 337 332 308 333 328 318 312 307 320 316 305 166 102 147 251 236 251 265 277 253 278 296 306 289 262 237 240 235 257 142 145 141 137 138 144
340 346 342 297 302 301 335 303 300 309 326 311 325 310 313 308 296 309 305 301 281 180 151 168 262 277 280 267 261 252 267 283 282 281 281 255 256 345 39 117 129 139 142 145 148
2 332 289 273 303 323 330 336 323 306 310 319 306 321 313 279 295 290 281 269 245 275 273 214 225 277 266 181 153 235 250 256 261 263 262 270 236 189 65 24 12 137 144 150 150